• In Netherlands
  • List of Countries
  • For 7 days
  • Water Temperature
  • Satellite Maps
  • Weather Map
  • Weather Widgets
  • user-avatar
    Login

    Hourly Weather Porto-Novo

    Today, 29 April, Saturday

    Time Temperature Precipitation Wind Pressure Humidity
    00:00 +29°C° 0 mm 2 mps 758 mmHg 86%
    01:00 +29°C° 0 mm 2 mps 758 mmHg 86%
    02:00 +29°C° 0 mm 2 mps 757 mmHg 87%
    03:00 +29°C° 0 mm 2 mps 757 mmHg 87%
    04:00 +29°C° 0 mm 2 mps 757 mmHg 86%
    05:00 +29°C° 0 mm 2 mps 757 mmHg 85%
    06:00 +29°C° 0 mm 2 mps 757 mmHg 84%
    07:00 +31°C° 0 mm 3 mps 758 mmHg 77%
    08:00 +33°C° 0 mm 3 mps 758 mmHg 69%
    09:00 +35°C° 0 mm 4 mps 758 mmHg 62%
    10:00 +35°C° 0 mm 4 mps 758 mmHg 60%
    11:00 +36°C° 0 mm 4 mps 757 mmHg 57%
    12:00 +36°C° 0 mm 4 mps 757 mmHg 55%
    13:00 +36°C° 0 mm 4 mps 756 mmHg 55%
    14:00 +36°C° 0 mm 4 mps 756 mmHg 54%
    15:00 +37°C° 0 mm 4 mps 755 mmHg 53%
    16:00 +35°C° 0 mm 4 mps 756 mmHg 60%
    17:00 +34°C° 0 mm 4 mps 756 mmHg 66%
    18:00 +31°C° 0 mm 3 mps 756 mmHg 73%
    19:00 +31°C° 0 mm 3 mps 757 mmHg 75%
    20:00 +30°C° 0 mm 3 mps 757 mmHg 78%
    21:00 +30°C° 0 mm 3 mps 757 mmHg 80%
    22:00 +30°C° 0 mm 3 mps 757 mmHg 81%
    23:00 +30°C° 0 mm 3 mps 757 mmHg 82%

    Tomorrow, 30 April, Sunday

    Time Temperature Precipitation Wind Pressure Humidity
    00:00 +29°C° 0 mm 3 mps 757 mmHg 82%
    01:00 +29°C° 0 mm 3 mps 757 mmHg 83%
    02:00 +29°C° 0 mm 3 mps 757 mmHg 84%
    03:00 +29°C° 0 mm 3 mps 756 mmHg 86%
    04:00 +29°C° 0 mm 3 mps 757 mmHg 86%
    05:00 +29°C° 0 mm 3 mps 757 mmHg 86%
    06:00 +29°C° 0 mm 3 mps 757 mmHg 87%
    07:00 +30°C° 0 mm 3 mps 758 mmHg 77%
    08:00 +33°C° 0 mm 3 mps 758 mmHg 68%
    09:00 +35°C° 0 mm 4 mps 758 mmHg 59%
    10:00 +36°C° 0.1 mm 4 mps 758 mmHg 55%
    11:00 +37°C° 0.1 mm 4 mps 758 mmHg 51%
    12:00 +38°C° 0.1 mm 4 mps 757 mmHg 47%
    13:00 +38°C° 0.1 mm 4 mps 757 mmHg 48%
    14:00 +38°C° 0.1 mm 4 mps 756 mmHg 49%
    15:00 +37°C° 0.1 mm 5 mps 755 mmHg 49%
    16:00 +36°C° 0 mm 4 mps 755 mmHg 56%
    17:00 +34°C° 0 mm 4 mps 755 mmHg 63%
    18:00 +33°C° 0 mm 4 mps 756 mmHg 70%
    19:00 +32°C° 0 mm 4 mps 756 mmHg 73%
    20:00 +32°C° 0 mm 4 mps 757 mmHg 77%
    21:00 +30°C° 0 mm 4 mps 758 mmHg 81%
    22:00 +30°C° 0.1 mm 4 mps 757 mmHg 81%
    23:00 +30°C° 0.1 mm 4 mps 757 mmHg 82%

    Day after tomorrow, 1 May, Monday

    Time Temperature Precipitation Wind Pressure Humidity
    00:00 +30°C° 0.1 mm 4 mps 757 mmHg 83%
    01:00 +29°C° 0 mm 4 mps 757 mmHg 84%
    02:00 +29°C° 0 mm 4 mps 756 mmHg 84%
    03:00 +29°C° 0 mm 3 mps 756 mmHg 85%
    04:00 +29°C° 0 mm 3 mps 756 mmHg 85%
    05:00 +29°C° 0 mm 3 mps 757 mmHg 86%
    06:00 +29°C° 0 mm 3 mps 757 mmHg 87%
    07:00 +31°C° 0 mm 3 mps 757 mmHg 78%
    08:00 +33°C° 0 mm 4 mps 758 mmHg 68%
    09:00 +35°C° 0 mm 5 mps 758 mmHg 59%
    10:00 +36°C° 0 mm 5 mps 757 mmHg 55%
    11:00 +37°C° 0 mm 5 mps 757 mmHg 51%
    12:00 +39°C° 0 mm 5 mps 756 mmHg 48%
    13:00 +39°C° 0.2 mm 5 mps 756 mmHg 49%
    14:00 +37°C° 0.2 mm 5 mps 755 mmHg 51%
    15:00 +38°C° 0.2 mm 6 mps 754 mmHg 53%
    16:00 +35°C° 0 mm 5 mps 755 mmHg 59%
    17:00 +34°C° 0 mm 5 mps 755 mmHg 65%
    18:00 +32°C° 0 mm 5 mps 756 mmHg 72%
    19:00 +32°C° 0 mm 5 mps 756 mmHg 74%
    20:00 +32°C° 0 mm 5 mps 756 mmHg 77%
    21:00 +30°C° 0 mm 5 mps 757 mmHg 79%
    22:00 +30°C° 0 mm 4 mps 757 mmHg 80%
    23:00 +30°C° 0 mm 4 mps 756 mmHg 81%

    2 May, Tuesday

    Time Temperature Precipitation Wind Pressure Humidity
    00:00 +30°C° 0 mm 4 mps 756 mmHg 82%
    01:00 +30°C° 0 mm 4 mps 756 mmHg 82%
    02:00 +30°C° 0 mm 4 mps 756 mmHg 83%
    03:00 +29°C° 0 mm 4 mps 755 mmHg 83%
    04:00 +29°C° 0.1 mm 3 mps 756 mmHg 84%
    05:00 +29°C° 0.1 mm 3 mps 756 mmHg 84%
    06:00 +29°C° 0.1 mm 2 mps 757 mmHg 84%
    07:00 +31°C° 0.1 mm 3 mps 757 mmHg 77%
    08:00 +33°C° 0.1 mm 3 mps 757 mmHg 69%
    09:00 +35°C° 0.1 mm 3 mps 758 mmHg 62%
    10:00 +36°C° 0.5 mm 4 mps 757 mmHg 59%
    11:00 +36°C° 0.5 mm 4 mps 757 mmHg 56%
    12:00 +37°C° 0.5 mm 4 mps 756 mmHg 53%
    13:00 +37°C° 0.1 mm 4 mps 755 mmHg 53%
    14:00 +37°C° 0.1 mm 5 mps 755 mmHg 53%
    15:00 +37°C° 0.1 mm 5 mps 754 mmHg 53%
    16:00 +35°C° 0.3 mm 5 mps 754 mmHg 60%
    17:00 +34°C° 0.3 mm 5 mps 755 mmHg 66%
    18:00 +32°C° 0.3 mm 4 mps 755 mmHg 72%
    19:00 +32°C° 0 mm 4 mps 756 mmHg 75%
    20:00 +30°C° 0 mm 4 mps 756 mmHg 77%
    21:00 +30°C° 0 mm 4 mps 757 mmHg 79%
    22:00 +30°C° 0.3 mm 4 mps 756 mmHg 81%
    23:00 +29°C° 0.3 mm 4 mps 756 mmHg 83%

    3 May, Wednesday

    Time Temperature Precipitation Wind Pressure Humidity
    00:00 +29°C° 0.3 mm 4 mps 756 mmHg 86%
    01:00 +29°C° 0.3 mm 3 mps 756 mmHg 87%
    02:00 +29°C° 0.3 mm 3 mps 755 mmHg 88%
    03:00 +28°C° 0.3 mm 3 mps 755 mmHg 89%
    04:00 +28°C° 0.3 mm 3 mps 756 mmHg 89%
    05:00 +28°C° 0.3 mm 3 mps 756 mmHg 89%
    06:00 +28°C° 0.3 mm 3 mps 757 mmHg 88%
    07:00 +30°C° 0 mm 3 mps 757 mmHg 79%
    08:00 +33°C° 0 mm 4 mps 757 mmHg 70%
    09:00 +34°C° 0 mm 4 mps 757 mmHg 61%
    10:00 +35°C° 0.1 mm 4 mps 757 mmHg 58%
    11:00 +36°C° 0.1 mm 4 mps 756 mmHg 55%
    12:00 +37°C° 0.1 mm 4 mps 756 mmHg 52%
    13:00 +37°C° 0.1 mm 4 mps 755 mmHg 52%
    14:00 +37°C° 0.1 mm 5 mps 754 mmHg 52%
    15:00 +36°C° 0.1 mm 5 mps 754 mmHg 52%
    16:00 +35°C° 0 mm 4 mps 754 mmHg 58%
    17:00 +34°C° 0 mm 4 mps 755 mmHg 64%
    18:00 +32°C° 0 mm 4 mps 755 mmHg 70%
    19:00 +32°C° 0 mm 4 mps 755 mmHg 73%
    20:00 +30°C° 0 mm 4 mps 756 mmHg 76%
    21:00 +30°C° 0 mm 4 mps 756 mmHg 79%
    22:00 +30°C° 0 mm 4 mps 756 mmHg 80%
    23:00 +30°C° 0 mm 4 mps 756 mmHg 81%

    4 May, Thursday

    Time Temperature Precipitation Wind Pressure Humidity
    00:00 +29°C° 0 mm 3 mps 756 mmHg 82%
    01:00 +29°C° 0 mm 3 mps 755 mmHg 84%
    02:00 +29°C° 0 mm 3 mps 755 mmHg 85%
    03:00 +29°C° 0 mm 2 mps 755 mmHg 86%
    04:00 +29°C° 0 mm 2 mps 756 mmHg 86%
    05:00 +29°C° 0 mm 2 mps 756 mmHg 86%
    06:00 +29°C° 0 mm 2 mps 757 mmHg 85%
    07:00 +31°C° 0 mm 3 mps 757 mmHg 76%
    08:00 +33°C° 0 mm 3 mps 757 mmHg 67%
    09:00 +35°C° 0 mm 3 mps 757 mmHg 58%
    10:00 +36°C° 0.1 mm 3 mps 757 mmHg 56%
    11:00 +37°C° 0.1 mm 4 mps 756 mmHg 53%
    12:00 +38°C° 0.1 mm 4 mps 756 mmHg 50%
    13:00 +37°C° 0.2 mm 4 mps 755 mmHg 51%
    14:00 +37°C° 0.2 mm 4 mps 754 mmHg 52%
    15:00 +37°C° 0.2 mm 4 mps 754 mmHg 53%
    16:00 +35°C° 0 mm 4 mps 754 mmHg 59%
    17:00 +34°C° 0 mm 4 mps 754 mmHg 65%
    18:00 +32°C° 0 mm 4 mps 755 mmHg 71%
    19:00 +32°C° 0 mm 4 mps 755 mmHg 74%
    20:00 +30°C° 0 mm 4 mps 756 mmHg 77%
    21:00 +30°C° 0 mm 3 mps 756 mmHg 80%
    22:00 +30°C° 0 mm 3 mps 756 mmHg 80%
    23:00 +30°C° 0 mm 3 mps 755 mmHg 81%
    Show more